Weather History for FABL - March, 2013

Change the Weather History Date:

Tuesday, March 12, 2013

  Actual Average Record
Temperature  
Mean Temperature 72 °F -  
Max Temperature 86 °F 77 °F 93 °F (1999)
Min Temperature 58 °F 49 °F 44 °F (1997)
Cooling Degree Days 7    
Growing Degree Days 22 (Base 50)    
Moisture  
Dew Point 55 °F    
Average Humidity 61    
Maximum Humidity 88    
Minimum Humidity 20    
Precipitation  
Precipitation 0.00 in 0.09 in - ()
Sea Level Pressure  
Sea Level Pressure 30.23 in    
Wind  
Wind Speed 6 mph ()    
Max Wind Speed 13 mph    
Max Gust Speed -    
Visibility 10.5 miles    
Events Rain    
Averages and records for this station are not official NWS values.
T = Trace of Precipitation, MM = Missing Value Source: Averaged Metar Reports

Daily Weather History Graph

Daily Weather History Graph

Search for Another Location

Airport or City:

Trip Planner

Search our weather history database for the weather conditions in past years. The results will help you decide how hot, cold, wet, or windy it might be!

Date:

Astronomy

Mar. 12, 2013 Rise Set
Actual Time 6:13 AM SAST 6:35 PM SAST
Civil Twilight 5:49 AM SAST 6:58 PM SAST
Nautical Twilight 5:21 AM SAST 7:26 PM SAST
Astronomical Twilight 4:53 AM SAST 7:54 PM SAST
Moon 6:40 AM SAST (3/12) 6:46 PM SAST (3/12)
Length of Visible Light 13h 09m
Length of Day
12h 21m
New Moon, 0% of the Moon is Illuminated
Mar 12
New Moon
Mar 19
First Quarter
Mar 27
Full
Apr 3
Last Quarter
Apr 10
New

Hourly Weather History & Observations

Time (SAST) Temp. Heat Index Dew Point Humidity Pressure Visibility Wind Dir Wind Speed Gust Speed Precip Events Conditions
12:00 AM 62.6 °F - 51.8 °F 68% 30.36 in - East 8.1 mph - N/A   Unknown
1:00 AM 60.8 °F - 55.4 °F 82% 30.30 in 6.2 mi East 12.7 mph - N/A Rain Light Rain
2:00 AM 60 °F - 56 °F 84%  in - NE 5.8 mph - -  
2:00 AM 59.0 °F - 55.4 °F 88% 30.36 in - NE 4.6 mph - N/A   Unknown
3:00 AM 59.0 °F - 55.4 °F 88% 30.30 in - North 6.9 mph - N/A   Unknown
4:00 AM 59.0 °F - 55.4 °F 88% 30.24 in - NW 3.5 mph - N/A   Unknown
5:00 AM 60 °F - 56 °F 83%  in 19 mi NE 3.5 mph - -   Partly Cloudy
5:00 AM 59.0 °F - 55.4 °F 88% 30.24 in - NE 2.3 mph - N/A   Clear
6:00 AM 59.0 °F - 55.4 °F 88% 30.21 in - Variable 2.3 mph - N/A   Clear
7:00 AM 59.0 °F - 55.4 °F 88% 30.24 in - Variable 1.2 mph - N/A   Clear
8:00 AM 63 °F - 57 °F 75%  in 19 mi NNE 6.9 mph - -   Scattered Clouds
8:00 AM 62.6 °F - 55.4 °F 77% 30.33 in - NNE 6.9 mph - N/A   Clear
9:00 AM 66.2 °F - 57.2 °F 73% 30.27 in 6.2 mi NNE 9.2 mph - N/A   Partly Cloudy
10:00 AM 69.8 °F - 55.4 °F 60% 30.30 in 6.2 mi North 11.5 mph - N/A   Partly Cloudy
11:00 AM 73 °F - 56 °F 46%  in 19 mi NW 9.2 mph - -   Scattered Clouds
11:00 AM 71.6 °F - 55.4 °F 57% 30.33 in 6.2 mi NW 9.2 mph - N/A   Partly Cloudy
12:00 PM 75.2 °F - 55.4 °F 50% 30.24 in 6.2 mi North 10.4 mph - N/A   Partly Cloudy
1:00 PM 78.8 °F - 57.2 °F 47% 30.21 in 6.2 mi North 10.4 mph - N/A   Partly Cloudy
2:00 PM 81 °F - 53 °F 28%  in 19 mi NNW 11.5 mph - -   Scattered Clouds
2:00 PM 80.6 °F - 51.8 °F 37% 30.24 in 6.2 mi NNW 10.4 mph - N/A   Partly Cloudy
3:00 PM 80.6 °F 80.5 °F 55.4 °F 42% 30.15 in 6.2 mi WNW 9.2 mph - N/A   Partly Cloudy
4:00 PM 82.4 °F 82.0 °F 57.2 °F 42% 30.15 in 6.2 mi Variable 5.8 mph - N/A   Partly Cloudy
5:00 PM 85 °F - 50 °F 20%  in 19 mi West 4.6 mph - -   Scattered Clouds
5:00 PM 84.2 °F - 50.0 °F 30% 30.18 in 6.2 mi West 4.6 mph - N/A   Partly Cloudy
6:00 PM 82.4 °F 81.4 °F 53.6 °F 37% 30.12 in 6.2 mi North 3.5 mph - N/A   Partly Cloudy
7:00 PM 78.8 °F - 53.6 °F 42% 30.12 in - NE 5.8 mph - N/A   Clear
8:00 PM 72 °F - 55 °F 44%  in 19 mi NE 5.8 mph - -   Scattered Clouds
8:00 PM 71.6 °F - 53.6 °F 53% 30.18 in - NE 4.6 mph - N/A   Clear
9:00 PM 69.8 °F - 55.4 °F 60% 30.15 in 6.2 mi NE 5.8 mph - N/A   Unknown
10:00 PM 68.0 °F - 55.4 °F 64% 30.21 in - East 2.3 mph - N/A   Unknown
11:00 PM 66 °F - 56 °F 62%  in - NNW 4.6 mph - -  
11:00 PM 66.2 °F - 55.4 °F 68% 30.21 in - NNW 3.5 mph - N/A   Unknown